Location: Biefvillers
(50.1156°N, 2.8217°E)
Time: 12:45:30
(UTC+00:00)

Daily predictions for brighter satellites

Satellite Brightness Start Highest point End
(mag) Time Altitude Azimuth Time Altitude Azimuth Time Altitude Azimuth
Cosmos 2333 Rocket 3.0 16:12:58 10° S 16:18:08 36° ESE 16:23:21 10° NE
Cosmos 494 Rocket 4.1 16:16:31 10° SSW 16:21:45 69° ESE 16:27:00 10° NNE
Cosmos 2228 Rocket 3.5 16:19:55 10° SSW 16:24:29 73° W 16:29:06 10° N
Meteor 1-11 Rocket 4.4 16:19:09 10° N 16:24:42 38° ENE 16:30:12 10° SE
Cosmos 332 Rocket 4.1 16:20:00 10° NNW 16:24:53 77° WSW 16:29:43 10° SSE
Cosmos 2237 Rocket 3.7 16:22:11 10° SE 16:25:40 17° E 16:29:10 10° ENE
Radarsat Rocket 4.0 16:20:07 10° SSE 16:26:18 84° ENE 16:32:10 10° NNW
Cosmos 2322 Rocket 3.1 16:23:40 10° SW 16:29:04 46° NW 16:34:32 10° NNE
Cosmos 2279 Rocket 4.0 16:23:27 10° N 16:29:41 64° ENE 16:35:53 10° SSE
Okean-O 3.6 16:27:19 10° ESE 16:30:57 25° ENE 16:34:36 10° N
NOSS 2-2 (E) 4.4 16:27:42 10° WSW 16:31:18 39° NW 16:35:39 10° NE
Cosmos 1812 4.1 16:29:38 10° SE 16:32:29 20° E 16:35:21 10° NE
Cosmos 1844 4.3 16:27:16 10° NNW 16:32:56 66° WSW 16:38:30 10° SSE
Cosmos 1269 Rocket 4.1 16:27:41 10° SSW 16:32:58 71° ESE 16:38:16 10° NNE
ATLAS 2AS CENTAUR R/B 3.2 16:26:39 10° SW 16:34:41 88° NW 16:42:43 10° NE
Cosmos 1707 Rocket 3.9 16:31:10 10° SSE 16:35:27 49° E 16:39:47 10° NNE
Cosmos 1634 Rocket 4.2 16:29:32 10° NNW 16:35:44 78° W 16:41:54 10° S
SL-16 R/B 3.4 16:30:40 10° WSW 16:35:56 38° NW 16:41:13 10° NNE
STARLINK-67 2.6 16:33:28 10° WSW 16:36:14 76° SSE 16:38:49 11° ENE
RESURS DK-1 3.3 16:32:40 10° S 16:36:15 30° ESE 16:39:53 10° NE
BREEZE-M DEB (TANK) 3.6 16:35:40 10° W 16:39:02 37° SSW 16:41:08 10° SE
SJ-7 4.4 16:34:53 10° SSE 16:39:05 81° ENE 16:43:15 10° NNW
Cosmos 2219 Rocket 2.5 16:35:27 10° S 16:40:51 51° ESE 16:46:18 10° NE
CORIOLIS 4.4 16:37:00 10° SE 16:42:14 50° ENE 16:47:29 10° N
AQUARIUS 4.4 16:38:58 10° SE 16:43:17 48° ENE 16:47:38 10° N
Cosmos 1844 Rocket 4.0 16:38:51 10° NW 16:44:07 45° WSW 16:49:24 10° S
NOSS 2 (A) 4.1 16:43:37 10° NW 16:46:10 79° SW 16:48:31 10° SE
Cosmos 1302 Rocket 4.2 16:41:29 10° NNW 16:46:48 82° WSW 16:52:03 10° SSE
Shenzhou-11 Module 4.2 16:47:45 10° SW 16:49:36 16° S 16:51:27 10° SE
Cosmos 1340 3.4 16:46:11 10° NNW 16:49:55 57° W 16:53:37 10° S
SeaSat 1 4.2 16:48:20 11° NE 16:50:07 13° NNE 16:52:23 10° N
Cosmos 1500 3.5 16:46:37 10° N 16:50:14 42° ENE 16:53:49 10° SSE
Feng Yun 1-1 Rocket 4.1 16:46:28 10° SSE 16:51:49 69° ENE 16:57:12 10° NNW
Nadezhda 4 Rocket 4.5 16:47:01 10° SSE 16:52:50 40° E 16:58:39 10° NNE
STARLINK-46 3.7 16:51:27 10° SSW 16:53:51 30° SSE 16:55:30 16° E
COSMO-SKYMED 1 4.1 16:53:10 13° ENE 16:55:08 17° E 16:58:02 10° SE
Cosmos 1943 Rocket 3.8 16:52:20 10° N 16:55:46 16° NNE 16:57:51 13° NE
Cosmos 1689 Rocket 3.3 16:54:12 10° N 16:57:08 43° WNW 17:00:01 10° SW
Cosmos 2251 Rocket 4.1 16:53:56 10° S 16:58:47 37° ESE 17:03:18 12° NE
Cosmos 1536 3.4 16:55:32 10° N 16:59:17 36° ENE 17:03:00 10° SE
YAOGAN 6 3.7 16:56:59 10° ESE 16:59:48 23° ENE 17:02:39 10° NNE
H-2A R/B 2.5 16:59:03 10° SSE 17:02:43 69° ENE 17:06:25 10° N
IRS-1C Rocket 4.1 16:59:00 10° SSE 17:04:17 89° WSW 17:09:36 10° NNW
USA 215 3.3 16:59:38 13° ENE 17:05:34 83° NNW 17:12:07 10° WSW
CSL-04 Rocket 4.4 17:01:50 10° ESE 17:06:15 28° ENE 17:10:42 10° N
YAOGAN 1 3.7 17:03:06 10° ESE 17:06:28 23° ENE 17:09:51 10° N
COSMOS 2428 2.7 17:04:50 10° SSW 17:10:31 80° ESE 17:16:07 11° NNE
PSLV R/B 3.9 17:06:47 10° NNE 17:10:59 90° NW 17:15:07 10° SSW
CZ-4 R/B 2.2 17:08:30 10° ESE 17:11:48 27° ENE 17:15:05 10° N
Meteor 1-5 Rocket 4.2 17:06:59 10° NNW 17:12:38 88° W 17:18:03 10° S
Lacrosse 5 rocket 1.9 17:10:19 10° SSW 17:14:24 44° SE 17:16:37 22° ENE
Cosmos 1733 Rocket 3.1 17:13:29 10° N 17:17:53 85° W 17:22:17 10° S
Envisat 3.0 17:13:44 10° SSE 17:18:43 61° ENE 17:23:45 10° N
Okean 1-7 4.3 17:16:04 10° SE 17:19:11 21° E 17:19:11 21° E
NOSS 7 (D) 4.0 17:17:48 10° NW 17:20:43 67° NE 17:23:12 16° SE
SL-4 R/B 1.9 17:19:20 10° WSW 17:23:04 73° SSE 17:25:06 27° E
Cosmos 1867 4.3 17:22:58 10° NNW 17:27:53 33° NNE 17:30:02 25° ENE
Genesis I 3.7 17:24:23 10° NNW 17:28:05 38° NE 17:29:11 31° ENE
ISS -2.6 17:25:01 10° W 17:28:13 42° SSW 17:31:05 12° SE
Cosmos 1992 Rocket 4.0 17:26:02 10° NNW 17:31:17 86° WSW 17:36:31 10° SSE
FengYun 1-2 T 4.2 17:26:06 10° SSE 17:31:29 61° ENE 17:36:55 10° N
Cosmos 1666 2.6 17:31:13 10° N 17:34:55 55° ENE 17:38:35 10° SSE
CZ-4B R/B 4.4 17:35:10 10° NNW 17:36:47 13° WNW 17:38:23 10° W
Cosmos 1900 4.3 17:32:01 10° NW 17:36:57 87° SW 17:41:49 10° SE
Sich 1 Rocket 4.4 17:34:40 10° N 17:37:45 29° NE 17:37:45 29° NE
Cosmos 2278 Rocket 2.7 17:34:50 10° NW 17:40:27 64° WSW 17:46:01 10° SSE
NOSS 5 (C) 4.3 17:37:36 10° NW 17:40:44 70° NE 17:42:21 31° ESE
COBE Rocket 3.9 17:36:37 10° N 17:41:15 75° WNW 17:45:54 10° SSW
SKYMED 2 3.8 17:41:52 30° NE 17:43:39 47° E 17:47:51 10° S
SMAP 4.3 17:39:34 10° S 17:44:01 44° W 17:48:30 10° NNW
CZ-4 R/B 4.4 17:40:13 10° SSE 17:44:20 63° ENE 17:48:29 10° N
COSMOS 2455 4.5 17:39:31 10° W 17:44:23 25° NNW 17:48:44 12° NNE
Cosmos 1782 Rocket 3.7 17:42:15 10° N 17:46:29 46° ENE 17:50:39 10° SSE
NOSS 3-4 (A) 4.1 17:42:06 10° WSW 17:48:02 51° NW 17:52:27 20° NNE
NOSS 3-4 (C) 4.1 17:42:12 10° WSW 17:48:08 52° NW 17:52:33 20° NNE
Cosmos 2360 Rocket 3.9 17:43:34 10° W 17:48:23 27° NW 17:53:13 10° NNE
Cosmos 921 Rocket 3.2 17:44:58 10° N 17:49:05 45° ENE 17:49:41 42° E
NOSS 0 Rocket 3.9 17:43:19 10° SSW 17:49:31 80° ESE 17:53:49 22° NE
Cosmos 2195 Rocket 4.5 17:45:41 10° S 17:51:44 58° E 17:57:54 10° NNE
NOAA 15 4.5 17:47:24 10° SSE 17:52:36 65° ENE 17:57:49 10° N
Cosmos 2369 Rocket 3.2 17:50:09 10° NNW 17:54:28 26° NE 17:54:28 26° NE
SL-16 R/B 2.9 17:52:08 10° SSE 17:57:01 32° ESE 17:57:01 32° ESE
Cosmos 1862 Rocket 4.1 17:53:01 10° SSW 17:57:18 57° WNW 18:01:40 10° N
Cosmos 1092 Rocket 3.9 17:51:59 10° S 17:58:17 76° E 18:04:33 10° NNE
Cosmos 2242 Rocket 3.6 17:54:50 10° S 17:59:24 85° W 18:03:10 15° N
Cosmos 1703 Rocket 3.5 17:55:35 10° S 17:59:58 60° E 18:01:05 45° NE
Ariane Rocket 3.9 18:03:29 29° NNE 18:03:29 29° NNE 18:06:33 10° N
Cosmos 2333 Rocket 3.1 17:56:45 10° SW 18:02:17 47° NW 18:06:45 16° NNE
Okean-O 3.8 18:03:00 10° S 18:07:14 43° W 18:11:29 10° NNW
Cosmos 292 Rocket 4.0 18:02:34 10° NNW 18:07:26 73° WSW 18:12:17 10° SSE
Cosmos 1812 4.1 18:04:26 10° SW 18:08:02 38° WNW 18:11:26 11° N
Cosmos 2237 Rocket 2.1 18:03:14 10° SSW 18:08:56 90° ESE 18:11:47 31° NNE
BREEZE-M R/B 2.5 18:04:41 10° W 18:09:34 84° SSW 18:09:34 84° SSW
RESURS DK-1 3.7 18:10:24 10° WSW 18:14:14 36° NW 18:15:53 25° N
Cosmos 2322 Rocket 4.5 18:11:38 10° WNW 18:14:39 14° NNW 18:17:41 10° N
Meteor 1-27 Rocket 4.4 18:10:00 10° SSW 18:15:38 55° WNW 18:21:25 10° N
Cosmos 2219 Rocket 3.5 18:19:54 10° WSW 18:25:02 35° NW 18:28:41 17° N
SeaSat 1 3.4 18:28:08 34° N 18:28:08 34° N 18:31:19 10° NNW
ATLAS 2AS CENTAUR R/B 4.0 18:19:13 10° W 18:26:41 39° NNW 18:30:48 24° NNE
S3M 3.9 18:20:36 10° N 18:26:46 56° ENE 18:27:12 55° E
COSMO-SKYMED 1 3.0 18:30:24 41° NNW 18:31:42 60° WNW 18:35:58 10° SSW
YAOGAN 6 4.4 18:30:01 10° SSW 18:33:11 31° W 18:36:25 10° NNW
USA 116 4.5 18:37:20 45° N 18:39:03 81° WNW 18:44:15 10° SSW
Cosmos 1980 4.2 18:34:06 10° SW 18:39:38 55° NW 18:41:50 35° N
Cosmos 1441 Rocket 4.4 18:36:03 10° NNW 18:39:41 41° W 18:43:15 10° SSW
Meteor 1-18 Rocket 4.1 18:34:46 10° S 18:40:29 77° ESE 18:40:29 77° ESE
Cosmos 1943 Rocket 2.8 18:35:19 10° NNW 18:39:24 42° N 18:39:24 42° N
Cosmos 1553 Rocket 3.9 18:34:40 10° N 18:41:04 88° E 18:47:29 10° S
Cosmos 2297 4.0 18:36:22 10° NNW 18:42:02 65° WSW 18:45:25 25° S
YAOGAN 1 3.5 18:38:07 10° S 18:42:18 48° W 18:46:31 10° NNW
Cosmos 1428 Rocket 4.4 18:37:07 10° S 18:43:18 83° W 18:48:29 16° N
CSL-04 Rocket 4.3 18:41:10 10° S 18:46:19 53° W 18:51:31 10° NNW
CZ-4 R/B 3.1 18:43:16 10° SSW 18:46:46 31° W 18:50:16 10° NNW
USA 215 3.6 18:46:59 45° NNE 18:48:16 51° N 18:54:34 10° W
Lacrosse 5 rocket 2.8 18:49:30 10° W 18:52:16 35° WNW 18:52:16 35° WNW
Okean 1-7 4.1 18:52:26 10° SSW 18:56:06 43° W 18:56:06 43° W
Cosmos 2026 Rocket 4.5 18:54:27 10° SSW 19:00:24 56° WNW 19:05:53 12° N
Cosmos 489 Rocket 4.5 18:55:34 10° NNW 19:01:57 80° WSW 19:02:47 67° S
SL-4 R/B 4.0 18:58:52 10° W 19:00:43 27° W 19:00:43 27° W
Cosmos 407 Rocket 4.5 19:04:35 10° SSW 19:07:53 40° SW 19:07:53 40° SW
Cosmos 1867 4.2 19:06:29 10° NW 19:10:44 53° WNW 19:10:44 53° WNW
NOSS 3-1 (C) 4.1 19:20:36 10° NW 19:26:44 64° N 19:26:44 64° N
USA 229 DEB 4.2 19:28:15 10° NW 19:33:49 57° NNW 19:33:49 57° NNW
USA 229 4.2 19:28:21 10° NW 19:33:53 57° NNW 19:33:53 57° NNW
Cosmos 2369 Rocket 3.9 19:33:50 10° NNW 19:36:16 27° NW 19:36:16 27° NW
NOSS 3-1 (A) 4.5 19:33:36 10° NW 19:38:44 48° NNW 19:38:44 48° NNW
SL-16 R/B 3.6 19:35:30 10° SW 19:38:57 35° WSW 19:38:57 35° WSW
Cosmos 2237 Rocket 4.2 19:49:19 10° W 19:53:38 23° NW 19:53:38 23° NW
Cosmos 2344 4.2 19:49:57 10° NW 19:59:25 89° SW 19:59:36 88° SSE
ATLAS 2AS CENTAUR R/B 4.4 20:12:57 10° WNW 20:18:14 28° NNW 20:18:14 28° NNW
